| time (UTC) | temp F | wind direction | speed knots | gust knots | rain 1hr in | rain 24hr in | rain mn in | humidity % | barometer mb |
| 20260503184448 | 58 | 218 | 3.5 | 5.2 | 0.00 | 0.00 | 0.00 | 35 | 1014.0 |
| 20260503183945 | 58 | 218 | 3.5 | 5.2 | 0.00 | 0.00 | 0.00 | 35 | 1014.1 |
| 20260503183442 | 58 | 211 | 2.6 | 5.2 | 0.00 | 0.00 | 0.00 | 35 | 1013.8 |
| 20260503182938 | 59 | 88 | 3.5 | 5.2 | 0.00 | 0.00 | 0.00 | 37 | 1014.0 |
| 20260503182437 | 58 | 124 | 1.7 | 2.6 | 0.00 | 0.00 | 0.00 | 36 | 1013.8 |
| 20260503181934 | 57 | 355 | 7.0 | 8.7 | 0.00 | 0.00 | 0.00 | 35 | 1013.8 |
| 20260503181431 | 57 | 164 | 6.1 | 7.8 | 0.00 | 0.00 | 0.00 | 36 | 1014.1 |
| 20260503180927 | 58 | 100 | 2.6 | 2.6 | 0.00 | 0.00 | 0.00 | 37 | 1014.2 |
| 20260503180427 | 56 | 229 | 2.6 | 3.5 | 0.00 | 0.00 | 0.00 | 36 | 1014.2 |
| 20260503175922 | 57 | 140 | 0.0 | 0.9 | 0.00 | 0.00 | 0.00 | 37 | 1014.1 |
| 20260503175421 | 56 | 336 | 4.3 | 6.1 | 0.00 | 0.00 | 0.00 | 36 | 1014.1 |
| 20260503174916 | 58 | 284 | 6.1 | 8.7 | 0.00 | 0.00 | 0.00 | 35 | 1014.4 |
| 20260503174414 | 57 | 340 | 3.5 | 3.5 | 0.00 | 0.00 | 0.00 | 37 | 1014.1 |
| 20260503173909 | 56 | 304 | 2.6 | 5.2 | 0.00 | 0.00 | 0.00 | 36 | 1014.2 |
| 20260503173405 | 54 | 16 | 1.7 | 2.6 | 0.00 | 0.00 | 0.00 | 38 | 1014.4 |
| 20260503172902 | 55 | 187 | 2.6 | 3.5 | 0.00 | 0.00 | 0.00 | 38 | 1014.5 |
| 20260503172400 | 56 | 279 | 4.3 | 6.1 | 0.00 | 0.00 | 0.00 | 36 | 1014.4 |
| 20260503171855 | 55 | 308 | 5.2 | 6.1 | 0.00 | 0.00 | 0.00 | 37 | 1014.7 |
| 20260503171352 | 55 | 98 | 0.9 | 2.6 | 0.00 | 0.00 | 0.00 | 39 | 1014.4 |
| 20260503170850 | 55 | 314 | 6.1 | 8.7 | 0.00 | 0.00 | 0.00 | 37 | 1014.4 |
| 20260503170346 | 55 | 312 | 4.3 | 6.1 | 0.00 | 0.00 | 0.00 | 38 | 1014.4 |
| 20260503150738 | 51 | 259 | 4.3 | 6.1 | 0.00 | 0.00 | 0.00 | 39 | 1015.8 |
| 20260503150234 | 49 | 314 | 7.0 | 9.6 | 0.00 | 0.00 | 0.00 | 40 | 1015.6 |
| 20260503140159 | 48 | 86 | 2.6 | 3.5 | 0.00 | 0.00 | 0.00 | 47 | 1015.7 |
| 20260503131128 | 46 | 197 | 2.6 | 2.6 | 0.00 | 0.00 | 0.00 | 53 | 1016.2 |
| 20260503130626 | 45 | 179 | 1.7 | 2.6 | 0.00 | 0.00 | 0.00 | 55 | 1015.9 |
| 20260503130124 | 45 | 102 | 0.0 | 0.9 | 0.00 | 0.00 | 0.00 | 55 | 1016.0 |
| 20260503110516 | 35 | 119 | 0.0 | 0.0 | 0.00 | 0.00 | 0.00 | 73 | 1015.3 |
| 20260503090408 | 34 | 103 | 0.0 | 0.0 | 0.00 | 0.00 | 0.00 | 73 | 1014.7 |
| 20260503081335 | 34 | 102 | 0.0 | 0.9 | 0.00 | 0.00 | 0.00 | 71 | 1014.6 |
| 20260503080832 | 34 | 122 | 0.0 | 0.0 | 0.00 | 0.00 | 0.00 | 70 | 1014.4 |
| 20260503080329 | 35 | 126 | 0.0 | 0.0 | 0.00 | 0.00 | 0.00 | 68 | 1014.3 |
| 20260503072805 | 36 | 123 | 0.0 | 0.0 | 0.00 | 0.00 | 0.00 | 67 | 1014.2 |
| 20260503072305 | 36 | 115 | 0.0 | 0.0 | 0.00 | 0.00 | 0.00 | 65 | 1014.2 |
| 20260503071758 | 37 | 115 | 0.0 | 0.0 | 0.00 | 0.00 | 0.00 | 66 | 1014.1 |
| 20260503071255 | 37 | 111 | 0.0 | 0.0 | 0.00 | 0.00 | 0.00 | 64 | 1014.2 |
| 20260503070751 | 37 | 173 | 0.9 | 0.9 | 0.00 | 0.00 | 0.00 | 65 | 1014.0 |
| 20260503070250 | 37 | 123 | 0.0 | 0.9 | 0.00 | 0.00 | 0.00 | 65 | 1014.0 |
| 20260503060215 | 39 | 50 | 0.9 | 0.9 | 0.00 | 0.00 | 0.00 | 64 | 1014.0 |
| 20260503054701 | 39 | 296 | 2.6 | 3.5 | 0.00 | 0.00 | 0.00 | 63 | 1013.8 |
| 20260503054159 | 39 | 261 | 0.9 | 0.9 | 0.00 | 0.00 | 0.00 | 63 | 1013.9 |
| 20260503053656 | 39 | 239 | 1.7 | 2.6 | 0.00 | 0.00 | 0.00 | 63 | 1014.0 |
| 20260503053155 | 40 | 146 | 0.0 | 0.0 | 0.00 | 0.00 | 0.00 | 62 | 1014.1 |
| 20260503052651 | 40 | 79 | 0.9 | 0.9 | 0.00 | 0.00 | 0.00 | 62 | 1014.0 |
| 20260503052147 | 40 | 32 | 0.0 | 0.9 | 0.00 | 0.00 | 0.00 | 61 | 1013.9 |
| 20260503051643 | 40 | 123 | 0.0 | 0.0 | 0.00 | 0.00 | 0.00 | 62 | 1014.0 |
| 20260503051141 | 41 | 326 | 0.0 | 0.9 | 0.00 | 0.00 | 0.00 | 61 | 1014.0 |
| 20260503050637 | 41 | 83 | 0.9 | 0.9 | 0.00 | 0.00 | 0.00 | 61 | 1014.3 |
| 20260503050134 | 41 | 75 | 0.9 | 0.9 | 0.00 | 0.00 | 0.00 | 61 | 1014.3 |
| 20260503045632 | 41 | 112 | 0.9 | 0.9 | 0.00 | 0.00 | 0.00 | 60 | 1014.1 |
| 20260503045129 | 41 | 158 | 0.9 | 0.9 | 0.00 | 0.00 | 0.00 | 61 | 1014.2 |
| 20260503044625 | 41 | 274 | 2.6 | 5.2 | 0.00 | 0.00 | 0.00 | 60 | 1014.3 |
| 20260503044123 | 41 | 113 | 1.7 | 2.6 | 0.00 | 0.00 | 0.00 | 60 | 1014.2 |
| 20260503043619 | 41 | 120 | 0.0 | 0.9 | 0.00 | 0.00 | 0.00 | 61 | 1014.4 |
| 20260503043116 | 41 | 270 | 3.5 | 5.2 | 0.00 | 0.00 | 0.00 | 61 | 1014.4 |
| 20260503042613 | 41 | 131 | 0.0 | 0.0 | 0.00 | 0.00 | 0.00 | 63 | 1014.1 |
| 20260503042109 | 41 | 107 | 0.0 | 0.0 | 0.00 | 0.00 | 0.00 | 62 | 1014.3 |
| 20260503041605 | 41 | 69 | 1.7 | 2.6 | 0.00 | 0.00 | 0.00 | 63 | 1014.3 |
| 20260503041103 | 41 | 184 | 1.7 | 2.6 | 0.00 | 0.00 | 0.00 | 63 | 1014.3 |
| 20260503040600 | 41 | 59 | 0.9 | 0.9 | 0.00 | 0.00 | 0.00 | 63 | 1014.3 |
| 20260503040057 | 41 | 100 | 0.9 | 0.9 | 0.00 | 0.00 | 0.00 | 63 | 1014.5 |
| 20260503035554 | 41 | 280 | 1.7 | 2.6 | 0.00 | 0.00 | 0.00 | 64 | 1014.3 |
| 20260503035052 | 41 | 139 | 0.0 | 0.0 | 0.00 | 0.00 | 0.00 | 64 | 1014.4 |
| 20260503034549 | 41 | 171 | 0.0 | 0.9 | 0.00 | 0.00 | 0.00 | 64 | 1014.5 |
| 20260503034046 | 41 | 156 | 0.0 | 0.9 | 0.00 | 0.00 | 0.00 | 64 | 1014.5 |
| 20260503033543 | 41 | 85 | 0.9 | 0.9 | 0.00 | 0.00 | 0.00 | 62 | 1014.4 |
| 20260503033041 | 41 | 151 | 0.0 | 0.9 | 0.00 | 0.00 | 0.00 | 63 | 1014.3 |
| 20260503032539 | 41 | 11 | 1.7 | 2.6 | 0.00 | 0.00 | 0.00 | 63 | 1014.5 |
| 20260503032037 | 41 | 69 | 0.9 | 0.9 | 0.00 | 0.00 | 0.00 | 63 | 1014.4 |
| 20260503031534 | 41 | 114 | 0.0 | 0.0 | 0.00 | 0.00 | 0.00 | 63 | 1014.4 |
| 20260503031031 | 41 | 111 | 0.9 | 0.9 | 0.00 | 0.00 | 0.00 | 64 | 1014.5 |
| 20260503030527 | 41 | 113 | 0.0 | 0.0 | 0.00 | 0.00 | 0.00 | 64 | 1014.7 |
| 20260503030025 | 41 | 140 | 0.0 | 0.0 | 0.00 | 0.00 | 0.00 | 65 | 1014.5 |
| 20260503025521 | 41 | 308 | 1.7 | 2.6 | 0.00 | 0.00 | 0.00 | 64 | 1014.6 |
| 20260503025019 | 42 | 98 | 0.0 | 0.0 | 0.00 | 0.00 | 0.00 | 64 | 1014.9 |
| 20260503024515 | 42 | 356 | 2.6 | 3.5 | 0.00 | 0.00 | 0.00 | 63 | 1014.7 |
| 20260503024013 | 42 | 301 | 0.9 | 0.9 | 0.00 | 0.00 | 0.00 | 63 | 1014.9 |
| 20260503023509 | 42 | 143 | 0.9 | 2.6 | 0.00 | 0.00 | 0.00 | 64 | 1015.1 |
| 20260503023007 | 42 | 307 | 2.6 | 2.6 | 0.00 | 0.00 | 0.00 | 64 | 1015.0 |
| 20260503022502 | 42 | 344 | 2.6 | 2.6 | 0.00 | 0.00 | 0.00 | 64 | 1014.9 |
| 20260503021957 | 42 | 151 | 0.0 | 0.9 | 0.00 | 0.00 | 0.00 | 65 | 1014.8 |
| 20260503021454 | 42 | 136 | 0.0 | 0.9 | 0.00 | 0.00 | 0.00 | 65 | 1014.9 |
| 20260503020951 | 42 | 146 | 0.0 | 0.9 | 0.00 | 0.00 | 0.00 | 66 | 1015.0 |
| 20260503020449 | 42 | 140 | 0.0 | 0.0 | 0.00 | 0.00 | 0.00 | 66 | 1014.8 |
| 20260503015945 | 42 | 115 | 0.0 | 0.0 | 0.00 | 0.00 | 0.00 | 67 | 1014.7 |
| 20260503015442 | 42 | 158 | 0.0 | 0.0 | 0.00 | 0.00 | 0.00 | 67 | 1014.8 |
| 20260503014938 | 42 | 160 | 0.9 | 2.6 | 0.00 | 0.00 | 0.00 | 68 | 1014.5 |
| 20260503014435 | 42 | 90 | 0.9 | 0.9 | 0.00 | 0.00 | 0.00 | 67 | 1014.4 |
| 20260503013933 | 42 | 144 | 0.9 | 0.9 | 0.00 | 0.00 | 0.00 | 68 | 1014.6 |
| 20260503013430 | 42 | 157 | 0.9 | 0.9 | 0.00 | 0.00 | 0.00 | 67 | 1014.4 |
| 20260503012927 | 42 | 282 | 3.5 | 5.2 | 0.00 | 0.00 | 0.00 | 67 | 1014.6 |
| 20260503012425 | 42 | 344 | 2.6 | 3.5 | 0.00 | 0.00 | 0.00 | 67 | 1014.4 |
| 20260503011921 | 42 | 147 | 0.9 | 0.9 | 0.00 | 0.00 | 0.00 | 67 | 1014.5 |
| 20260503011418 | 42 | 99 | 0.0 | 0.0 | 0.00 | 0.00 | 0.00 | 68 | 1014.5 |
| 20260503010915 | 43 | 133 | 0.0 | 0.0 | 0.00 | 0.00 | 0.00 | 68 | 1014.2 |
| 20260503010412 | 43 | 202 | 2.6 | 3.5 | 0.00 | 0.00 | 0.00 | 67 | 1014.3 |
| 20260503005909 | 43 | 85 | 0.0 | 0.9 | 0.00 | 0.00 | 0.00 | 67 | 1014.2 |
| 20260503005407 | 43 | 149 | 0.0 | 0.9 | 0.00 | 0.00 | 0.00 | 67 | 1014.4 |
| 20260503004902 | 43 | 303 | 1.7 | 2.6 | 0.00 | 0.00 | 0.00 | 67 | 1014.3 |
| 20260503004400 | 43 | 85 | 0.0 | 0.9 | 0.00 | 0.00 | 0.00 | 67 | 1014.2 |
| 20260503003857 | 43 | 46 | 1.7 | 2.6 | 0.00 | 0.00 | 0.00 | 67 | 1014.2 |
| 20260503003354 | 43 | 235 | 1.7 | 2.6 | 0.00 | 0.00 | 0.00 | 66 | 1013.9 |
| 20260503002851 | 43 | 298 | 3.5 | 5.2 | 0.00 | 0.00 | 0.00 | 66 | 1014.1 |
| 20260503002348 | 43 | 163 | 1.7 | 2.6 | 0.00 | 0.00 | 0.00 | 66 | 1013.8 |
| 20260503001844 | 43 | 88 | 1.7 | 2.6 | 0.00 | 0.00 | 0.00 | 65 | 1013.9 |
| 20260503001341 | 43 | 290 | 2.6 | 2.6 | 0.00 | 0.00 | 0.00 | 66 | 1013.8 |
| 20260503000838 | 43 | 61 | 0.9 | 0.9 | 0.00 | 0.00 | 0.00 | 65 | 1013.7 |
| 20260503000336 | 43 | 109 | 0.0 | 0.0 | 0.00 | 0.00 | 0.00 | 66 | 1013.8 |
| 20260502235833 | 44 | 132 | 0.0 | 0.0 | 0.00 | 0.00 | 0.00 | 66 | 1013.6 |
| 20260502235330 | 44 | 136 | 0.0 | 0.0 | 0.00 | 0.00 | 0.00 | 66 | 1013.8 |
| 20260502234826 | 44 | 346 | 4.3 | 5.2 | 0.00 | 0.00 | 0.00 | 65 | 1013.9 |
| 20260502234323 | 44 | 164 | 1.7 | 2.6 | 0.00 | 0.00 | 0.00 | 65 | 1013.7 |
| 20260502233820 | 44 | 103 | 0.0 | 0.9 | 0.00 | 0.00 | 0.00 | 66 | 1013.7 |
| 20260502233316 | 44 | 142 | 0.9 | 0.9 | 0.00 | 0.00 | 0.00 | 65 | 1013.6 |
| 20260502232813 | 44 | 129 | 0.0 | 0.9 | 0.00 | 0.00 | 0.00 | 65 | 1013.8 |
| 20260502232310 | 44 | 150 | 0.0 | 0.9 | 0.00 | 0.00 | 0.00 | 64 | 1013.7 |
| 20260502231806 | 44 | 270 | 1.7 | 2.6 | 0.00 | 0.00 | 0.00 | 64 | 1013.6 |
| 20260502231304 | 44 | 276 | 3.5 | 3.5 | 0.00 | 0.00 | 0.00 | 64 | 1013.6 |
| 20260502230802 | 44 | 297 | 1.7 | 2.6 | 0.00 | 0.00 | 0.00 | 64 | 1013.4 |
| 20260502230300 | 45 | 153 | 1.7 | 3.5 | 0.00 | 0.00 | 0.00 | 64 | 1013.4 |
| 20260502225756 | 45 | 10 | 1.7 | 3.5 | 0.00 | 0.00 | 0.00 | 64 | 1013.3 |
| 20260502225253 | 45 | 262 | 2.6 | 3.5 | 0.00 | 0.00 | 0.00 | 64 | 1013.7 |
| 20260502224749 | 45 | 109 | 1.7 | 2.6 | 0.00 | 0.00 | 0.00 | 66 | 1013.7 |
| 20260502224246 | 45 | 334 | 1.7 | 2.6 | 0.00 | 0.00 | 0.00 | 67 | 1013.6 |
| 20260502223744 | 45 | 7 | 5.2 | 7.8 | 0.00 | 0.00 | 0.00 | 66 | 1013.4 |
| 20260502223242 | 45 | 103 | 0.0 | 0.9 | 0.00 | 0.00 | 0.00 | 66 | 1013.4 |
| 20260502222739 | 46 | 228 | 2.6 | 3.5 | 0.00 | 0.00 | 0.00 | 66 | 1013.4 |
| 20260502222236 | 46 | 157 | 0.9 | 2.6 | 0.00 | 0.00 | 0.00 | 65 | 1013.4 |
| 20260502221731 | 46 | 304 | 1.7 | 2.6 | 0.00 | 0.00 | 0.00 | 64 | 1013.4 |
| 20260502221229 | 46 | 299 | 1.7 | 2.6 | 0.00 | 0.00 | 0.00 | 64 | 1013.4 |
| 20260502220725 | 46 | 110 | 0.0 | 0.0 | 0.00 | 0.00 | 0.00 | 63 | 1013.4 |
| 20260502220221 | 46 | 76 | 0.9 | 0.9 | 0.00 | 0.00 | 0.00 | 62 | 1013.3 |
| 20260502215718 | 46 | 224 | 4.3 | 5.2 | 0.00 | 0.00 | 0.00 | 61 | 1013.6 |
| 20260502215215 | 46 | 129 | 0.0 | 0.9 | 0.00 | 0.00 | 0.00 | 61 | 1013.4 |
| 20260502214713 | 47 | 291 | 1.7 | 2.6 | 0.00 | 0.00 | 0.00 | 61 | 1013.4 |
| 20260502214210 | 47 | 222 | 0.9 | 2.6 | 0.00 | 0.00 | 0.00 | 62 | 1013.3 |
| 20260502213707 | 47 | 133 | 0.0 | 0.0 | 0.00 | 0.00 | 0.00 | 62 | 1013.3 |
| 20260502213204 | 47 | 88 | 0.0 | 0.9 | 0.00 | 0.00 | 0.00 | 61 | 1013.0 |
| 20260502212702 | 47 | 49 | 0.9 | 0.9 | 0.00 | 0.00 | 0.00 | 60 | 1013.1 |
| 20260502212200 | 48 | 291 | 0.9 | 0.9 | 0.00 | 0.00 | 0.00 | 59 | 1013.1 |
| 20260502211656 | 48 | 126 | 0.0 | 0.0 | 0.00 | 0.00 | 0.00 | 60 | 1013.1 |
| 20260502211153 | 48 | 44 | 2.6 | 3.5 | 0.00 | 0.00 | 0.00 | 60 | 1012.8 |
| 20260502210650 | 47 | 303 | 3.5 | 5.2 | 0.00 | 0.00 | 0.00 | 60 | 1012.9 |
| 20260502210147 | 46 | 11 | 1.7 | 2.6 | 0.00 | 0.00 | 0.00 | 63 | 1012.9 |
| 20260502205644 | 46 | 32 | 2.6 | 3.5 | 0.00 | 0.00 | 0.00 | 64 | 1012.8 |
| 20260502205141 | 46 | 87 | 0.9 | 0.9 | 0.00 | 0.00 | 0.00 | 66 | 1012.8 |
| 20260502204638 | 46 | 121 | 0.0 | 0.0 | 0.00 | 0.00 | 0.00 | 67 | 1012.9 |
| 20260502204135 | 46 | 136 | 0.0 | 0.0 | 0.00 | 0.00 | 0.00 | 65 | 1012.9 |
| 20260502203632 | 46 | 122 | 0.0 | 0.9 | 0.00 | 0.00 | 0.00 | 66 | 1012.9 |
| 20260502203131 | 46 | 28 | 2.6 | 2.6 | 0.00 | 0.00 | 0.00 | 65 | 1013.0 |
| 20260502202625 | 47 | 130 | 0.0 | 0.9 | 0.00 | 0.00 | 0.00 | 66 | 1012.9 |
| 20260502202124 | 46 | 15 | 0.9 | 0.9 | 0.00 | 0.00 | 0.00 | 67 | 1013.0 |
| 20260502201620 | 47 | 94 | 0.9 | 2.6 | 0.00 | 0.00 | 0.00 | 66 | 1012.9 |
| 20260502201116 | 47 | 33 | 2.6 | 3.5 | 0.00 | 0.00 | 0.00 | 65 | 1012.9 |
| 20260502200612 | 48 | 117 | 0.9 | 0.9 | 0.00 | 0.00 | 0.00 | 62 | 1013.0 |
| 20260502200110 | 49 | 318 | 5.2 | 6.1 | 0.00 | 0.00 | 0.00 | 56 | 1012.8 |
| 20260502195608 | 49 | 260 | 1.7 | 2.6 | 0.00 | 0.00 | 0.00 | 54 | 1012.9 |
| 20260502195103 | 49 | 110 | 2.6 | 3.5 | 0.00 | 0.00 | 0.00 | 51 | 1012.5 |
| 20260502194600 | 50 | 217 | 1.7 | 2.6 | 0.00 | 0.00 | 0.00 | 51 | 1012.5 |
| 20260502194056 | 51 | 196 | 2.6 | 2.6 | 0.00 | 0.00 | 0.00 | 49 | 1012.8 |
| 20260502193554 | 51 | 267 | 2.6 | 3.5 | 0.00 | 0.00 | 0.00 | 49 | 1013.0 |
| 20260502193050 | 51 | 127 | 0.9 | 0.9 | 0.00 | 0.00 | 0.00 | 49 | 1013.0 |
| 20260502192546 | 52 | 196 | 2.6 | 3.5 | 0.00 | 0.00 | 0.00 | 50 | 1012.9 |
| 20260502192044 | 51 | 147 | 0.9 | 0.9 | 0.00 | 0.00 | 0.00 | 50 | 1013.1 |
| 20260502191540 | 51 | 123 | 0.0 | 0.0 | 0.00 | 0.00 | 0.00 | 51 | 1013.1 |
| 20260502191038 | 51 | 160 | 3.5 | 3.5 | 0.00 | 0.00 | 0.00 | 51 | 1013.6 |
| 20260502190536 | 50 | 128 | 0.9 | 2.6 | 0.00 | 0.00 | 0.00 | 51 | 1013.4 |
| 20260502190032 | 49 | 295 | 2.6 | 2.6 | 0.00 | 0.00 | 0.00 | 51 | 1013.4 |
| 20260502185527 | 49 | 87 | 0.9 | 0.9 | 0.00 | 0.00 | 0.00 | 51 | 1013.4 |
| 20260502185024 | 48 | 95 | 0.0 | 0.9 | 0.00 | 0.00 | 0.00 | 52 | 1013.6 |